Regional Weather Roundup
Issued by NWS Newport/Morehead, NC

Home | Current Version | Previous Version | Text Only | Print | Product List | Glossary On
Versions: 1 2 3 4 5 6 7 8 9 10 11 12 13 14 15 16 17 18 19 20 21 22 23 24 25 26 27 28 29 30 31 32 33 34 35 36 37 38 39 40 41 42 43 44 45 46 47 48 49 50
000
ASUS42 KMHX 171222
RWRMHX
WEATHER ROUNDUP FOR EASTERN NORTH CAROLINA
NATIONAL WEATHER SERVICE NEWPORT/MOREHEAD CITY NC
800 AM EDT WED SEP 17 2014

NOTE: "FAIR" INDICATES FEW OR NO CLOUDS BELOW 12,000 FEET
WITH NO SIGNIFICANT WEATHER AND/OR OBSTRUCTIONS TO VISIBILITY

NCZ015>017-031-032-045>047-102-103-171300-
NORTH COAST

CITY           SKY/WX    TMP DP  RH WIND       PRES   REMARKS
EDENTON        CLOUDY    68  65  90 NE5       29.97
ELIZABETH CITY CLOUDY    71  64  78 NE9       29.98R
KITTY HAWK     CLOUDY    73  63  70 E9        29.96S
MANTEO         CLOUDY    73  63  71 E13G18    29.96F

$$

NCZ045>047-081-094-103-104-171300-
CENTRAL COAST

CITY           SKY/WX    TMP DP  RH WIND       PRES   REMARKS
FRISCO         CLOUDY    71  68  90 NE9       29.93S
SWANQUARTER      N/A     72 N/A N/A NE3G12    29.91S

$$

NCZ095-097-098-100-101-171300-
SOUTHERN COAST

CITY           SKY/WX    TMP DP  RH WIND       PRES   REMARKS
BEAUFORT       PTSUNNY   72  70  93 N3        29.92F
CEDAR ISLAND     N/A     77 N/A N/A E6G18     29.97S
JACKSONVILLE   CLOUDY    70  68  93 N5        29.92S
NEWPORT        NOT AVBL
PINEY ISLAND   CLOUDY    75  71  87 E7        29.92F FOG
WILMINGTON     MOSUNNY   67  65  93 N5        29.93S


$$

NCZ011>013-027>030-043-044-078>080-089-090>093-098-171300-
COASTAL PLAIN

CITY           SKY/WX    TMP DP  RH WIND       PRES   REMARKS
AHOSKIE        CLOUDY    66  62  89 N5        30.00R
CLINTON        CLOUDY    68  67  99 CALM      29.96R
ELIZABETHTOWN  PTSUNNY   66  66 100 CALM      29.95R
GOLDSBORO      MOSUNNY   68  67  98 NE1       29.94R
GREENVILLE     PTSUNNY   68  63  83 NE6       29.99R
HAVELOCK       PTSUNNY   73  70  90 CALM      29.95R
KENANSVILLE    CLOUDY    68  66  94 N5        29.96R
KINSTON        NOT AVBL
NEW BERN       CLOUDY    72  68  87 NE3       29.95R
RICHLANDS      CLOUDY    70  66  88 N3        29.94R
ROANOKE RAPIDS NOT AVBL
ROCKY MOUNT    CLOUDY    68  62  81 NE7       29.98R
WASHINGTON     PTSUNNY   67  65  93 NE3       29.97R
WHITEVILLE     MOSUNNY   68  64  89 N3        29.95R

$$

AMZ130-135-150-152-154-156-158-170-250-252-270-ANZ085-086-088-633-658-670-171300-
MARINE OBSERVATIONS

STATION/POSITION TIME  TEMP    WIND        PRES    WAVE   SWELL
                       AIR SEA DIR/SP/G            HT/PER HT/PER
                 (UTC) (F)     (DEG/KT/KT) (MB)    (FT/S) (FT/S)
CHESAPEAKE LIGHT 1200   71      60/ 15/ 16 1016.4
BUOY 44014       1200   73 77   40/ 14/ 17 1015.0    4/15   3/15
DUCK             1200   74 76   70/ 17/ 18 1014.3
2E DUCK          1200                        N/A     4/14   3/14
OREGON INLET     1200   74 76   50/ 12/ 19 1014.2
BUOY 44095       1200      76                N/A     4/15   2/15
20E OREGON INLET NOT AVBL
HATTERAS CG      1200   75 79   50/  7/ 11 1014.1
DIAMOND BUOY     1200   74     360/ 14/ 27 1013.0    3/15   3/15
CAPE LOOKOUT     1200   76      90/ 10/ 11 1013.0
BEAUFORT LAB     1200   72 80   20/  4/  5 1012.7
30 SE NEW RIVER  1200   76 81   70/ 10/ 12 1013.0    3/15   3/15
5 SE WRIGHTSVILL 1200   69 81   30/ 14/ 17   N/A
BUOY 41002       1142   76 82  180/  6/  8 1012.4    7/14   7/14
BUOY 41004       1200   79 83   70/  6/ 10 1012.4    3/16   2/16

$$


USA.gov is the U.S. government's official web portal to all federal, state and local government web resources and services.